This is the latest recevied weather packets stored in our database for station/object YN1JLX-13. If no packets are shown the sender has not sent any weather packets the latest 1 day(s).
| Time | Temp. | Humidity | Pressure | Rain* | Wind** | Luminosity | Snow |
|---|---|---|---|---|---|---|---|
| 1778079948 | 23.89° C | 58% | 1013 hPa | 0 mm | - | - | - |
| 1778075746 | 22.22° C | 70% | 1013 hPa | 0 mm | - | - | - |
| 1778075146 | 21.67° C | 70% | 1012 hPa | 0 mm | - | - | - |
| 1778074546 | 22.22° C | 70% | 1012 hPa | 0 mm | - | - | - |
| 1778072745 | 20° C | 76% | 1012 hPa | 0 mm | - | - | - |
| 1778072144 | 20° C | 73% | 1012 hPa | 0 mm | - | - | - |
| 1778071544 | 21.11° C | 73% | 1012 hPa | 0 mm | - | - | - |
| 1778069743 | 18.33° C | 73% | 1012 hPa | 0 mm | - | - | - |
| 1778067342 | 19.44° C | 73% | 1012 hPa | 0 mm | - | - | - |
| 1778065541 | 19.44° C | 72% | 1012 hPa | 0 mm | - | - | - |
| 1778064941 | 20° C | 72% | 1012 hPa | 0 mm | - | - | - |
| 1778064340 | 18.89° C | 71% | 1011 hPa | 0 mm | - | - | - |
| 1778063740 | 19.44° C | 71% | 1011 hPa | 0 mm | - | - | - |
| 1778061939 | 20° C | 70% | 1011 hPa | 0 mm | - | - | - |
| 1778060138 | 20° C | 70% | 1011 hPa | 0 mm | - | - | - |
| 1778059538 | 20.56° C | 70% | 1011 hPa | 0 mm | - | - | - |
| 1778058337 | 21.11° C | 70% | 1011 hPa | 0 mm | - | - | - |
| 1778057737 | 22.22° C | 70% | 1011 hPa | 0 mm | - | - | - |
| 1778056536 | 20° C | 71% | 1011 hPa | 0 mm | - | - | - |
| 1778055936 | 21.11° C | 71% | 1011 hPa | 0 mm | - | - | - |
| 1778054135 | 19.44° C | 71% | 1011 hPa | 0 mm | - | - | - |
| 1778053535 | 18.33° C | 72% | 1011 hPa | 0 mm | - | - | - |
| 1778052934 | 19.44° C | 72% | 1011 hPa | 0 mm | - | - | - |
| 1778052334 | 20.56° C | 72% | 1012 hPa | 0 mm | - | - | - |
| 1778051734 | 18.89° C | 73% | 1012 hPa | 0 mm | - | - | - |
* Rain latest hour (hover to see other rain measurements)
** Current wind speed in m/s (hover to see current wind gust speed)